NOAA Logo National Centers for Environmental Information

formerly the National Oceanographic Data Center (NODC)...  more on NCEI

NOAA Satellite and Information Service

CRUISE INFORMATION RECORD AND DATA
 
NODC Cruise US-28147 Information
WOD CRUISE REFERENCE #US028147
DATA:
in WOD format US028147_XBT.dat
US028147_CTD.dat
in 'csv' format US028147_XBT.csv
US028147_CTD.csv
METADATA:
COUNTRYUNITED STATES (US)
NODC ACCESSION NUMBER (XBT)43165
NODC ACCESSION NUMBER (XBT)33402
SHIP NAME (43165)RONALD H. BROWN (NOAA ship;R/V;c.s.WTEC; built 04.1997; IMO9105786)
INSTITUTE (43165)US DOC NOAA ATLANTIC OCEANOGRAPHIC AND METEROLOGICAL LABORATORY (AOML)-MIAMI FL
PROJECT (33402)GTSPP (GLOBAL TEMPERATURE-SALINITY PROFILE PROGRAM)
ORIGINATORS CRUISE CODE (XBT)AB0703
PRIMARY INVESTIGATORS 
All ParametersMEINEN; DR. CHRISTOPHER S.
SUBMITTING INFORMATION (43165) 
SUBMITTING INSTITUTEUS DOC NOAA CLIMATE PROGRAM OFFICE (CPO)
SUBMITTING INVESTIGATORSNOWDEN; DERRICK
SUBMISSION DATE7/7/2008
DATE OF FIRST CAST9/12/2007
DATE OF LAST CAST9/20/2007
TOTAL NUMBER OF CASTS97
Temperature [t] PROFILES97
Salinity [s] PROFILES49
Oxygen [o] PROFILES49
Pressure [w] PROFILES49
UNIQUE CAST #LATITUDELONGITUDEDATETIMEPROBE TYPE
1146240230.048-76.3509/12/200717.279CTD
1153115730.049-76.3509/12/200717.750XBT
1153115830.049-76.3509/12/200717.750XBT
1146240326.500-72.0009/13/200716.860CTD
1146240426.500-72.3749/13/200722.811CTD
1153116026.500-72.3849/13/200723.033XBT
1153116126.500-72.3849/13/200723.100XBT
1153116226.500-72.3849/13/200723.183XBT
1153116326.500-72.3849/13/200723.183XBT
1153116526.500-72.3849/13/200723.250XBT
1153116626.500-72.3849/14/20072.000XBT
1153116726.500-72.3849/14/20072.083XBT
1153116826.500-72.3849/14/20072.083XBT
1153117026.500-72.3849/14/20072.150XBT
1153117226.500-72.3849/14/20072.233XBT
1153117326.500-72.3849/14/20072.300XBT
1146240526.500-72.7689/14/20075.027CTD
1153117426.500-72.7689/14/20075.250XBT
1153117526.500-72.7689/14/20075.250XBT
1153117626.491-72.7689/14/20075.450XBT
1153117826.500-72.7679/14/20078.100XBT
1153118026.500-72.7679/14/20078.267XBT
1153118126.500-72.7679/14/20078.333XBT
1153118226.500-72.7679/14/20078.333XBT
1153118426.500-72.7679/14/20078.467XBT
1153118526.500-72.7679/14/20078.567XBT
1146240626.499-73.1339/14/200710.949CTD
1146240726.500-73.4989/14/200717.007CTD
1153118626.501-73.4999/14/200717.250XBT
1153118826.501-73.4989/14/200717.433XBT
1153118926.501-73.4989/14/200717.500XBT
1153119026.501-73.4989/14/200717.500XBT
1153119126.500-73.5009/14/200720.200XBT
1153119226.500-73.5009/14/200720.283XBT
1153119326.500-73.5009/14/200720.283XBT
1153119426.500-73.5009/14/200720.400XBT
1153119526.500-73.5009/14/200720.400XBT
1153119726.500-73.5009/14/200720.483XBT
1153119826.500-73.5009/14/200720.550XBT
1146240826.500-73.8489/14/200723.016CTD
1153119926.500-73.8669/14/200723.317XBT
1153120126.500-73.8659/14/200723.433XBT
1153120226.501-73.8659/14/200723.500XBT
1153120326.501-73.8659/14/200723.500XBT
1153120426.501-73.8659/14/200723.567XBT
1153120526.501-73.8659/14/200723.567XBT
1153120726.499-73.8609/15/20072.150XBT
1153120826.499-73.8609/15/20072.217XBT
1153120926.499-73.8609/15/20072.217XBT
1153121026.499-73.8609/15/20072.283XBT
1153121126.499-73.8609/15/20072.283XBT
1153121326.499-73.8609/15/20072.350XBT
1153121426.499-73.8609/15/20072.417XBT
1153121526.499-73.8609/15/20072.483XBT
1153121626.499-73.8609/15/20072.483XBT
1146240926.500-74.2349/15/20075.198CTD
1146241026.500-74.5179/15/200710.312CTD
1146241126.501-74.8039/15/200715.417CTD
1146241226.500-75.0849/15/200720.560CTD
1146241326.500-75.3009/16/20071.578CTD
1146241426.501-75.5019/16/20076.117CTD
1146241526.500-75.7059/16/200710.476CTD
1146241626.499-75.9019/16/200714.806CTD
1146241726.500-76.0889/16/200720.067CTD
1146241826.500-76.2179/17/20071.116CTD
1146241926.500-76.3479/17/20076.759CTD
1146242026.500-76.4769/17/200711.017CTD
1146242126.500-76.5659/17/200715.356CTD
1146242226.500-76.6559/17/200720.263CTD
1146242326.500-76.7439/18/20070.811CTD
1146242426.517-76.8329/18/20074.968CTD
1121718126.525-76.8929/18/20077.818CTD
1121718426.457-78.6549/18/200719.649CTD
1121718626.336-78.7179/18/200721.509CTD
1121718726.259-78.7639/18/200723.019CTD
1121719026.167-78.8019/19/20070.573CTD
1121719426.079-78.8519/19/20072.284CTD
1121720326.050-79.2349/19/20076.218CTD
1121720526.050-79.3149/19/20077.352CTD
1121720626.050-79.3989/19/20078.751CTD
1121720726.047-79.4809/19/20079.999CTD
1121720926.049-79.5669/19/200711.429CTD
1121721126.044-79.6599/19/200713.194CTD
1121721426.042-79.7639/19/200715.019CTD
1121721526.036-79.8499/19/200716.555CTD
1121721926.036-79.9229/19/200718.128CTD
1121722126.037-79.9969/19/200719.208CTD
1121722326.046-80.0609/19/200720.136CTD
1121723126.992-79.9449/20/20071.702CTD
1121723726.994-79.8779/20/20073.007CTD
1121724026.991-79.7859/20/20074.524CTD
1121724526.993-79.6819/20/20076.068CTD
1121724726.987-79.6199/20/20077.573CTD
1121724826.985-79.5039/20/20079.181CTD
1121725026.987-79.3869/20/200710.690CTD
1121725226.991-79.2869/20/200712.191CTD
1121725426.990-79.2039/20/200713.691CTD


  Last modified:    Thu, 11-Mar-2010 21:29 UTC NCEI.info@noaa.gov
 
Dept. of Commerce - NOAA - NESDIS - NCEI
* Offsite Link Notification
USA.gov - The U.S. Government's Web Portal